Powrót do katalogu

CSTP-4.2

AktywnyNaukaSSO
NORAD 64883·PAYLOAD·🇷🇺 Russia
Ta nazwa satelity nie została jeszcze potwierdzona przez oficjalne źródła.

Wystrzelony Jul 25, 2025 z Vostochny Cosmodrome

Loading…

Następne Przeloty (najbliższe 24 godziny)

TLE

ŚwieżeSource: Space-Track

Epoka: Sep 14, 2026, 14:50 UTC

1 64883U 25155H   26257.61843336  .00007369  00000-0  24943-3 0  9993
2 64883  97.4682 226.5392 0006072 199.6339 160.4669 15.30885369 94431

Śledź CSTP-4.2 w czasie rzeczywistym z AllMySat

Download on the App Store